La Push, WA

3:27 PM PDT on August 24, 2016 (GMT -0700)
Quillayute

Weather History for KUIL - May, 2013

Change the Weather History Date:

Tuesday, May 21, 2013

  Actual Average Record
Temperature  
Mean Temperature 51 °F 52 °F  
Max Temperature 55 °F 60 °F 82 °F (1969)
Min Temperature 47 °F 44 °F 32 °F (1973)
Degree Days  
Heating Degree Days 14 13  
Month to date heating degree days 201 304  
Since 1 July heating degree days 4957 5346  
Cooling Degree Days 0 0  
Month to date cooling degree days 3 0  
Year to date cooling degree days 3 0  
Moisture  
Dew Point 45 °F    
Average Humidity 82    
Maximum Humidity 93    
Minimum Humidity 71    
Precipitation  
Precipitation 0.28 in 0.15 in 1.05 in (2000)
Month to date precipitation 3.15 3.60  
Year to date precipitation 52.18 47.24  
Sea Level Pressure  
Sea Level Pressure 29.85 in    
Wind  
Wind Speed 4 mph (WSW)    
Max Wind Speed 13 mph    
Max Gust Speed 17 mph    
Visibility 3 miles    
Events Fog , Rain    
T = Trace of Precipitation, MM = Missing Value Source: NWS Daily Summary

Daily Weather History Graph

Daily Weather History Graph

Search for Another Location

Airport or City:

Trip Planner

Search our weather history database for the weather conditions in past years. The results will help you decide how hot, cold, wet, or windy it might be!

Date:

Astronomy

May. 21, 2013 Rise Set
Actual Time 5:32 AM PDT 8:58 PM PDT
Civil Twilight 4:54 AM PDT 9:36 PM PDT
Nautical Twilight 4:03 AM PDT 10:27 PM PDT
Astronomical Twilight 2:57 AM PDT 11:34 PM PDT
Moon 5:03 PM PDT (5/21) 3:21 AM PDT (5/21)
Length of Visible Light 16h 42m
Length of Day
15h 25m
Waxing Gibbous, 85% of the Moon is Illuminated
May 21
Waxing Gibbous
May 24
Full
May 31
Last Quarter
Jun 8
New
Jun 16
First Quarter

Hourly Weather History & Observations

Time (PDT) Temp. Dew Point Humidity Pressure Visibility Wind Dir Wind Speed Gust Speed Precip Events Conditions
12:36 AM 48.2 °F 44.6 °F 87% 29.93 in 4.0 mi Calm Calm - 0.01 in Rain Light Rain
12:45 AM 48.2 °F 44.6 °F 87% 29.93 in 3.0 mi Calm Calm - 0.01 in Rain Light Rain
12:53 AM 48.0 °F 45.0 °F 89% 29.93 in 3.0 mi Calm Calm - 0.02 in Rain Light Rain
1:04 AM 48.2 °F 44.6 °F 87% 29.93 in 4.0 mi Calm Calm - 0.00 in Rain Light Rain
1:18 AM 48.2 °F 44.6 °F 87% 29.92 in 2.5 mi Calm Calm - 0.00 in Rain Light Rain
1:21 AM 48.2 °F 44.6 °F 87% 29.92 in 1.2 mi Calm Calm - 0.01 in Rain Light Rain
1:30 AM 48.2 °F 44.6 °F 87% 29.92 in 0.5 mi Calm Calm - 0.01 in Fog , Rain Light Rain
1:51 AM 48.2 °F 44.6 °F 87% 29.91 in 0.8 mi Calm Calm - 0.02 in Rain Light Rain
1:53 AM 48.0 °F 45.0 °F 89% 29.91 in 1.0 mi Calm Calm - 0.02 in Rain Light Rain
1:57 AM 48.2 °F 44.6 °F 87% 29.91 in 2.0 mi Calm Calm - 0.01 in Rain Light Rain
2:04 AM 48.2 °F 44.6 °F 87% 29.91 in 2.5 mi Calm Calm - 0.01 in Rain Light Rain
2:11 AM 48.2 °F 44.6 °F 87% 29.90 in 4.0 mi Calm Calm - 0.01 in Rain Light Rain
2:23 AM 48.2 °F 44.6 °F 87% 29.90 in 6.0 mi Calm Calm - 0.01 in   Overcast
2:40 AM 48.2 °F 44.6 °F 87% 29.89 in 1.0 mi Calm Calm - 0.01 in   Overcast
2:46 AM 48.2 °F 44.6 °F 87% 29.89 in 0.2 mi Calm Calm - 0.01 in Fog Fog
2:53 AM 48.0 °F 44.1 °F 86% 29.89 in 0.2 mi Calm Calm - 0.01 in Fog Fog
3:08 AM 48.2 °F 44.6 °F 87% 29.88 in 0.5 mi SE 3.5 mph - N/A Fog Fog
3:23 AM 48.2 °F 44.6 °F 87% 29.88 in 0.5 mi Calm Calm - N/A Fog Fog
3:46 AM 48.2 °F 44.6 °F 87% 29.88 in 1.0 mi Calm Calm - N/A   Overcast
3:51 AM 48.2 °F 44.6 °F 87% 29.88 in 2.0 mi Calm Calm - N/A   Overcast
3:53 AM 48.0 °F 44.1 °F 86% 29.88 in 3.0 mi Calm Calm - N/A   Overcast
4:24 AM 46.4 °F 44.6 °F 93% 29.87 in 4.0 mi Calm Calm - N/A   Overcast
4:32 AM 46.4 °F 44.6 °F 93% 29.87 in 1.8 mi Calm Calm - N/A   Overcast
4:38 AM 46.4 °F 44.6 °F 93% 29.86 in 0.8 mi Calm Calm - N/A   Overcast
4:51 AM 46.4 °F 42.8 °F 87% 29.86 in 0.2 mi Calm Calm - N/A Fog Fog
4:52 AM 46.9 °F 43.0 °F 86% 29.86 in 0.2 mi Calm Calm - N/A Fog Fog
5:13 AM 46.4 °F 44.6 °F 93% 29.86 in 0.2 mi Calm Calm - N/A Fog Fog
5:39 AM 46.4 °F 44.6 °F 93% 29.85 in 0.2 mi Calm Calm - N/A Fog Fog
5:53 AM 46.9 °F 43.0 °F 86% 29.86 in 0.2 mi Calm Calm - N/A Fog Fog
6:02 AM 46.4 °F 44.6 °F 93% 29.85 in 0.8 mi Calm Calm - N/A   Overcast
6:53 AM 46.9 °F 44.1 °F 90% 29.84 in 1.5 mi Calm Calm - N/A   Overcast
6:55 AM 46.4 °F 44.6 °F 93% 29.84 in 2.0 mi Calm Calm - N/A   Overcast
7:04 AM 46.4 °F 44.6 °F 93% 29.84 in 3.0 mi Calm Calm - N/A   Overcast
7:53 AM 48.0 °F 44.1 °F 86% 29.83 in 2.0 mi Calm Calm - 0.01 in Rain Light Rain
7:57 AM 48.2 °F 44.6 °F 87% 29.83 in 1.8 mi Calm Calm - 0.01 in Rain Light Rain
8:06 AM 48.2 °F 44.6 °F 87% 29.83 in 1.8 mi Calm Calm - 0.01 in Rain Light Rain
8:13 AM 48.2 °F 44.6 °F 87% 29.83 in 2.0 mi Calm Calm - 0.02 in Rain Light Rain
8:24 AM 48.2 °F 44.6 °F 87% 29.83 in 1.8 mi Calm Calm - 0.03 in Rain Light Rain
8:36 AM 48.2 °F 44.6 °F 87% 29.82 in 2.5 mi Calm Calm - 0.04 in Rain Light Rain
8:43 AM 48.2 °F 44.6 °F 87% 29.82 in 3.0 mi Calm Calm - 0.04 in Rain Light Rain
8:53 AM 48.9 °F 45.0 °F 86% 29.82 in 4.0 mi SSW 3.5 mph - 0.04 in Rain Light Rain
9:53 AM 50.0 °F 44.1 °F 80% 29.82 in 6.0 mi SSW 3.5 mph - 0.00 in   Haze
10:15 AM 51.8 °F 46.4 °F 82% 29.81 in 5.0 mi Calm Calm - N/A   Haze
10:53 AM 50.0 °F 45.0 °F 83% 29.81 in 1.8 mi SSW 9.2 mph - 0.01 in Rain Light Rain
10:58 AM 50.0 °F 44.6 °F 82% 29.80 in 1.5 mi SSW 6.9 mph - 0.00 in Rain Rain
11:12 AM 50.0 °F 46.4 °F 87% 29.80 in 2.0 mi SW 4.6 mph - 0.02 in Rain Light Rain
11:16 AM 50.0 °F 46.4 °F 87% 29.80 in 3.0 mi SW 4.6 mph - 0.02 in Rain Light Rain
11:22 AM 50.0 °F 46.4 °F 87% 29.80 in 5.0 mi West 3.5 mph - 0.02 in   Overcast
11:53 AM 50.0 °F 45.0 °F 83% 29.81 in 6.0 mi West 6.9 mph - 0.02 in   Haze
12:48 PM 51.8 °F 46.4 °F 82% 29.81 in 4.0 mi West 3.5 mph - 0.00 in Rain Light Rain
12:53 PM 51.1 °F 46.0 °F 83% 29.81 in 5.0 mi West 3.5 mph - 0.01 in Rain Light Rain
1:16 PM 53.6 °F 46.4 °F 77% 29.81 in 6.0 mi WSW 6.9 mph - 0.00 in   Haze
1:51 PM 53.6 °F 46.4 °F 77% 29.82 in 6.0 mi West 6.9 mph - 0.00 in   Haze
1:52 PM 53.1 °F 45.0 °F 74% 29.82 in 6.0 mi West 8.1 mph - 0.00 in   Haze
2:01 PM 51.8 °F 46.4 °F 82% 29.82 in 1.8 mi West 10.4 mph - 0.00 in Rain Rain
2:09 PM 51.8 °F 46.4 °F 82% 29.82 in 1.0 mi West 8.1 mph - 0.02 in Rain Light Rain
2:19 PM 51.8 °F 46.4 °F 82% 29.82 in 2.0 mi West 4.6 mph - 0.04 in Rain Light Rain
2:29 PM 51.8 °F 46.4 °F 82% 29.82 in 5.0 mi West 4.6 mph - 0.04 in Rain Light Rain
2:38 PM 53.6 °F 46.4 °F 77% 29.82 in 7.0 mi Variable 3.5 mph - 0.04 in   Overcast
2:53 PM 54.0 °F 46.9 °F 77% 29.82 in 7.0 mi West 8.1 mph - 0.04 in   Overcast
3:31 PM 53.6 °F 46.4 °F 77% 29.82 in 7.0 mi West 10.4 mph - N/A   Overcast
3:53 PM 53.1 °F 45.0 °F 74% 29.82 in 7.0 mi West 10.4 mph - N/A   Overcast
4:53 PM 53.1 °F 46.0 °F 77% 29.82 in 6.0 mi WNW 8.1 mph - 0.00 in   Haze
5:53 PM 51.1 °F 45.0 °F 80% 29.83 in 3.0 mi West 5.8 mph - 0.00 in Rain Light Rain
6:01 PM 51.8 °F 44.6 °F 76% 29.83 in 2.5 mi WSW 6.9 mph - 0.00 in Rain Light Rain
6:14 PM 50.0 °F 46.4 °F 87% 29.83 in 1.5 mi WNW 5.8 mph - 0.01 in Rain Light Rain
6:22 PM 50.0 °F 46.4 °F 87% 29.83 in 1.0 mi WNW 4.6 mph - 0.03 in Rain Rain
6:29 PM 50.0 °F 46.4 °F 87% 29.83 in 1.0 mi WNW 6.9 mph - 0.05 in Rain Light Rain
6:34 PM 50.0 °F 44.6 °F 82% 29.83 in 2.0 mi WNW 6.9 mph - 0.06 in Rain Light Rain
6:41 PM 50.0 °F 44.6 °F 82% 29.83 in 4.0 mi Variable 3.5 mph - 0.06 in Rain Light Rain
6:53 PM 50.0 °F 46.0 °F 86% 29.83 in 5.0 mi Variable 3.5 mph - 0.06 in   Overcast
7:01 PM 51.8 °F 46.4 °F 82% 29.83 in 5.0 mi Calm Calm - N/A   Haze
7:10 PM 51.8 °F 46.4 °F 82% 29.84 in 4.0 mi SW 4.6 mph - N/A   Overcast
7:36 PM 51.8 °F 46.4 °F 82% 29.85 in 5.0 mi West 4.6 mph - N/A   Haze
7:53 PM 51.1 °F 45.0 °F 80% 29.85 in 5.0 mi West 3.5 mph - N/A   Haze
8:53 PM 50.0 °F 45.0 °F 83% 29.85 in 5.0 mi Calm Calm - 0.00 in   Haze
9:53 PM 50.0 °F 46.0 °F 86% 29.86 in 4.0 mi Calm Calm - N/A   Overcast
10:09 PM 50.0 °F 46.4 °F 87% 29.86 in 2.5 mi SSE 3.5 mph - 0.00 in Rain Light Rain
10:34 PM 48.2 °F 44.6 °F 87% 29.86 in 3.0 mi South 3.5 mph - 0.01 in Rain Light Rain
10:38 PM 48.2 °F 44.6 °F 87% 29.86 in 2.5 mi South 3.5 mph - 0.01 in Rain Light Rain
10:43 PM 48.2 °F 46.4 °F 93% 29.86 in 3.0 mi South 3.5 mph - 0.01 in Rain Light Rain
10:51 PM 48.2 °F 46.4 °F 93% 29.86 in 4.0 mi SE 3.5 mph - 0.02 in Rain Light Rain
10:53 PM 48.9 °F 46.0 °F 90% 29.86 in 4.0 mi SE 3.5 mph - 0.02 in Rain Light Rain
11:03 PM 48.2 °F 44.6 °F 87% 29.86 in 4.0 mi SSE 4.6 mph - 0.00 in   Overcast
11:18 PM 48.2 °F 46.4 °F 93% 29.86 in 3.0 mi Calm Calm - 0.00 in Rain Light Rain
11:50 PM 48.2 °F 44.6 °F 87% 29.86 in 3.0 mi Calm Calm - 0.00 in   Overcast
11:53 PM 48.9 °F 45.0 °F 86% 29.86 in 3.0 mi SSE 3.5 mph - 0.00 in   Overcast